Location: Newark
(34.9500°N, 139.9667°E)
Time: 23:34:06
(UTC+00:00)

Vanguard 1 Rocket - Pass Details

Date: 08 December 2019
Orbit: 650 x 4226 km, 34.3° (Epoch: 26 January)

Event Time Altitude Azimuth Distance (km) Brightness Sun altitude
Rises 09:28:19 0° 214° (SW) 8,392 13.0 -23.9°
Reaches altitude 10° 09:35:19 10° 207° (SSW) 7,127 12.4 -25.3°
Maximum altitude 09:54:21 36° 150° (SSE) 3,968 10.4 -29.2°
Enters shadow 09:58:43 32° 123° (ESE) 3,773 10.1 -30.1°
Drops below altitude 10° 10:05:53 10° 89° (E) 4,421 - -31.5°
Sets 10:08:58 0° 81° (E) 5,020 - -32.1°
